Regional Weather Roundup
Issued by NWS State College, PA

Home | Current Version | Previous Version | Graphics & Text | Print | Product List | Glossary On
Versions: 1 2 3 4 5 6 7 8 9 10 11 12 13 14 15 16 17 18 19 20 21 22 23 24 25 26 27 28 29 30 31 32 33 34 35 36 37 38 39 40 41 42 43 44 45 46 47 48 49 50
000
ASUS41 KCTP 011803
RWRCTP

REGIONAL WEATHER ROUNDUP
NATIONAL WEATHER SERVICE STATE COLLEGE PA
200 PM EDT FRI AUG 01 2014

Note: "fair" indicates few or no clouds below 12,000 feet with no
significant weather and/or obstructions to visibility.

* = STATION THAT DOES NOT REPORT PRECIPITATION /E.G. RAIN...SNOW...ETC/
    THUNDER OR FOG.

PAZ002>004-007>009-013>016-020>023-029>032-011900-
WESTERN PENNSYLVANIA

CITY           SKY/WX    TMP DP  RH WIND       PRES   REMARKS
ERIE           SUNNY     79  62  56 NW7       30.13F
MEADVILLE      SUNNY     79  57  46 SW7       30.16F
FRANKLIN*      PTSUNNY   77  59  53 S6        30.18S
NEW CASTLE     FAIR      82  63  52 VRB6      30.15F
BEAVER COUNTY  MOSUNNY   77  61  57 S3        30.16S
BUTLER*        SUNNY     81  61  50 S3        30.18S
PITTSBURGH INT MOSUNNY   80  59  48 VRB6      30.15F
PITTSBURGH     SUNNY     81  57  43 VRB6      30.15S
INDIANA*       SUNNY     81  59  47 VRB7      30.20F
LATROBE        NOT AVBL
WASHINGTON CO* SUNNY     81  59  47 E6        30.16S
$$

PAZ004>006-010>012-017>019-024>028-033>037-041-042-045-046-049>053-011900-
CENTRAL PENNSYLVANIA

CITY           SKY/WX    TMP DP  RH WIND       PRES   REMARKS
BRADFORD       PTSUNNY   76  57  51 CALM      30.20F
DUBOIS         SUNNY     79  57  46 CALM      30.18F
CLEARFIELD     PTSUNNY   77  58  51 W5        30.18F
JOHNSTOWN      MOSUNNY   74  61  63 SE9       30.21F
ALTOONA        PTSUNNY   76  64  66 VRB6      30.20F
STATE COLLEGE  MOSUNNY   77  66  69 CALM      30.19F
WILLIAMSPORT   PTSUNNY   80  62  54 S3        30.15F
SELINSGROVE    CLOUDY    80  68  66 CALM      30.17F
FT INDIANTOWN  CLOUDY    82  69  64 VRB3      30.16F
CAPITAL CITY   CLOUDY    80  66  62 SW9       30.15F
HARRISBURG     CLOUDY    82  67  60 SE5       30.15F
YORK           CLOUDY    79  66  64 SW8       30.17F
$$

PAZ038>040-043-044-047-048-054-055-060>062-067>071-011900-
EASTERN PENNSYLVANIA

CITY           SKY/WX    TMP DP  RH WIND       PRES   REMARKS
SCRANTON       LGT RAIN  81  61  50 W6        30.17F
MOUNT POCONO   MOSUNNY   78  59  51 S9        30.23F
ALLENTOWN      MOSUNNY   82  66  58 S6        30.17F
QUAKERTOWN*    MOCLDY    81  68  65 S8        30.20F
READING        PTSUNNY   85  67  54 S9        30.15F
LANCASTER      PTSUNNY   81  64  56 SW12      30.17F
COATESVILLE    MOCLDY    79  68  69 SW3       30.20F
POTTSTOWN      PTSUNNY   81  66  60 VRB6      30.19F
BLUE BELL      CLOUDY    82  68  61 S3        30.17F
DOYLESTOWN     LGT RAIN  70  68  93 NE7       30.19R
WILLOW GROVE   NOT AVBL
NORTH PHILA    CLOUDY    82  64  54 SW6       30.19S
PHILADELPHIA   CLOUDY    81  67  62 S7        30.18F
$$



USA.gov is the U.S. government's official web portal to all federal, state and local government web resources and services.